Location: Dammartin
(48.9032°N, 1.6195°E)
Time: 15:51:52
(UTC+00:00)

BlueWalker 3 - Pass Details

Date: 16 April 2024
Orbit: 482 x 494 km, 53.2° (Epoch: 22 May)

Event Time Altitude Azimuth Distance (km) Brightness Sun altitude
Rises 19:46:03 0° 191° (SSW) 2,559 5.4 -9.7°
Reaches altitude 10° 19:48:56 10° 168° (SSE) 1,686 4.2 -10.1°
Maximum altitude 19:51:10 15° 132° (SE) 1,401 3.6 -10.4°
Enters shadow 19:51:23 15° 128° (SE) 1,405 3.5 -10.4°
